Erie, PA

11:42 PM EDT on March 23, 2017 (GMT -0400)
Erie International

Weather History for KERI - May, 2014

Change the Weather History Date:

Friday, May 16, 2014

  Actual Average Record
Temperature  
Mean Temperature 44 °F 57 °F  
Max Temperature 49 °F 67 °F 90 °F (1991)
Min Temperature 39 °F 48 °F 32 °F (1980)
Degree Days  
Heating Degree Days 21 9  
Month to date heating degree days 144 171  
Since 1 July heating degree days 6634 5990  
Cooling Degree Days 0 1  
Month to date cooling degree days 26 11  
Year to date cooling degree days 26 18  
Moisture  
Dew Point 39 °F    
Average Humidity 75    
Maximum Humidity 93    
Minimum Humidity 56    
Precipitation  
Precipitation 0.10 in 0.11 in 1.40 in (1965)
Month to date precipitation 2.21 1.73  
Year to date precipitation 15.11 13.35  
Snow  
Snow 0.00 in 0.00 in - ()
Month to date snowfall 0.0 0.0  
Since 1 July snowfall 138.4 100.9  
Snow Depth 0.00 in    
Sea Level Pressure  
Sea Level Pressure 29.98 in    
Wind  
Wind Speed 8 mph (West)    
Max Wind Speed 17 mph    
Max Gust Speed 23 mph    
Visibility 10 miles    
Events Rain    
T = Trace of Precipitation, MM = Missing Value Source: NWS Daily Summary

Daily Weather History Graph

Daily Weather History Graph

Search for Another Location

Airport or City:

Trip Planner

Search our weather history database for the weather conditions in past years. The results will help you decide how hot, cold, wet, or windy it might be!

Date:

Astronomy

May. 16, 2014 Rise Set
Actual Time 5:59 AM EDT 8:35 PM EDT
Civil Twilight 5:26 AM EDT 9:07 PM EDT
Nautical Twilight 4:46 AM EDT 9:48 PM EDT
Astronomical Twilight 4:01 AM EDT 10:33 PM EDT
Moon 10:41 PM EDT (5/16) 7:39 AM EDT (5/16)
Length of Visible Light 15h 40m
Length of Day
14h 36m
Waning Gibbous, 95% of the Moon is Illuminated
May 16
Waning Gibbous
May 21
Last Quarter
May 28
New
Jun 5
First Quarter
Jun 13
Full

Hourly Weather History & Observations

Time (EDT) Temp. Windchill Dew Point Humidity Pressure Visibility Wind Dir Wind Speed Gust Speed Precip Events Conditions
12:25 AM 50.0 °F - 46.4 °F 87% 29.97 in 10.0 mi West 16.1 mph 23.0 mph 0.01 in Rain Light Rain
12:33 AM 50.0 °F - 46.4 °F 87% 29.97 in 9.0 mi West 11.5 mph 21.9 mph 0.02 in Rain Light Rain
12:51 AM 48.9 °F - 46.0 °F 90% 29.97 in 6.0 mi WSW 11.5 mph 21.9 mph 0.06 in Rain Rain
1:28 AM 48.2 °F - 44.6 °F 87% 29.96 in 6.0 mi WSW 8.1 mph 17.3 mph 0.06 in Rain Rain
1:51 AM 48.9 °F - 45.0 °F 86% 29.96 in 7.0 mi West 9.2 mph - 0.10 in Rain Light Rain
2:05 AM 48.2 °F - 44.6 °F 87% 29.95 in 10.0 mi West 8.1 mph - 0.01 in Rain Light Rain
2:51 AM 48.9 °F - 43.0 °F 80% 29.93 in 10.0 mi WSW 12.7 mph - 0.01 in   Overcast
3:07 AM 48.2 °F - 42.8 °F 82% 29.93 in 10.0 mi West 12.7 mph 17.3 mph N/A   Overcast
3:51 AM 48.0 °F - 41.0 °F 77% 29.92 in 10.0 mi West 11.5 mph 19.6 mph N/A   Overcast
4:23 AM 48.2 °F - 41.0 °F 76% 29.92 in 10.0 mi West 9.2 mph 19.6 mph N/A   Overcast
4:51 AM 48.0 °F - 42.1 °F 80% 29.93 in 10.0 mi West 13.8 mph 20.7 mph N/A   Overcast
5:51 AM 46.9 °F - 41.0 °F 80% 29.94 in 10.0 mi West 8.1 mph 18.4 mph N/A   Overcast
6:51 AM 46.0 °F 41.0 °F 39.0 °F 76% 29.95 in 10.0 mi West 10.4 mph - N/A   Overcast
7:51 AM 46.0 °F 41.9 °F 39.0 °F 76% 29.96 in 10.0 mi WNW 8.1 mph - N/A   Overcast
8:51 AM 45.0 °F 39.7 °F 36.0 °F 71% 29.99 in 10.0 mi West 10.4 mph - N/A   Overcast
9:51 AM 45.0 °F 39.3 °F 37.0 °F 74% 29.99 in 10.0 mi WNW 11.5 mph - N/A   Overcast
9:59 AM 44.6 °F 39.7 °F 37.4 °F 76% 29.97 in 10.0 mi WNW 9.2 mph - N/A   Overcast
10:51 AM 45.0 °F 40.6 °F 37.0 °F 74% 29.98 in 10.0 mi West 8.1 mph - N/A   Overcast
11:04 AM 44.6 °F 39.7 °F 37.4 °F 76% 29.98 in 10.0 mi West 9.2 mph 18.4 mph N/A   Overcast
11:16 AM 46.4 °F 41.1 °F 37.4 °F 71% 29.98 in 10.0 mi West 11.5 mph 19.6 mph N/A   Overcast
11:51 AM 45.0 °F 40.1 °F 36.0 °F 71% 29.99 in 10.0 mi West 9.2 mph - N/A   Overcast
12:51 PM 45.0 °F 39.7 °F 35.1 °F 68% 29.99 in 10.0 mi West 10.4 mph - N/A   Scattered Clouds
1:51 PM 46.0 °F 40.6 °F 36.0 °F 68% 29.99 in 10.0 mi West 11.5 mph 18.4 mph N/A   Clear
2:51 PM 46.9 °F - 36.0 °F 66% 29.99 in 10.0 mi WNW 12.7 mph - N/A   Clear
3:51 PM 46.4 °F 41.1 °F 35.6 °F 66% 29.98 in 10.0 mi West 11.5 mph 17.3 mph N/A   Clear
4:51 PM 46.4 °F 41.5 °F 33.8 °F 62% 29.99 in 10.0 mi WSW 10.4 mph - N/A   Clear
5:51 PM 48.0 °F - 35.1 °F 61% 30.00 in 10.0 mi WNW 8.1 mph - N/A   Clear
6:51 PM 48.0 °F - 35.1 °F 61% 30.01 in 10.0 mi West 6.9 mph - N/A   Clear
7:51 PM 48.0 °F - 34.0 °F 58% 30.02 in 10.0 mi Calm Calm - N/A   Clear
8:51 PM 46.0 °F - 35.1 °F 66% 30.02 in 10.0 mi Calm Calm - N/A   Clear
9:51 PM 45.0 °F - 36.0 °F 71% 30.04 in 10.0 mi Calm Calm - N/A   Clear
10:51 PM 42.1 °F - 37.0 °F 82% 30.04 in 10.0 mi Calm Calm - N/A   Overcast
11:51 PM 42.1 °F - 37.0 °F 82% 30.03 in 10.0 mi Calm Calm - N/A   Clear